Station Historical Data
Daily Summary for January 19, 2017 Units:  English    Metric   Both
« Previous Day
Next Day »
Daily Weekly Monthly Yearly Custom
  High: Low: Average:
Temperature: 36.3 °F 33.4 °F 34.5 °F
Dew Point: 35.3 °F 31.7 °F 32.7 °F
Humidity: 96% 90% 93%
Wind Speed: 14.0mph 0.0mph 4.4mph
Wind Gust: 22.0mph - -
Wind- - WSW
Pressure: 30.12 in 29.99 in -
Precipitation: 0.00 in    
Historical Graphs
 
 
Tabular Data for January 19, 2017
Time Temperature Dew Point Pressure Wind Wind Speed Wind Gust Humidity Rainfall Rate (Hourly)
00:04 36.1 °F 35.1 °F 30.05 in WSW 10.0 mph 18.0 mph 96% 0.01 in
00:09 36.1 °F 35.1 °F 30.05 in WSW 9.0 mph 18.0 mph 96% 0.01 in
00:14 36.1 °F 35.1 °F 30.04 in SW 8.0 mph 19.0 mph 96% 0.01 in
00:19 36.1 °F 35.1 °F 30.05 in West 13.0 mph 17.0 mph 96% 0.00 in
00:24 36.2 °F 35.2 °F 30.04 in WSW 10.0 mph 18.0 mph 96% 0.00 in
00:29 36.2 °F 35.2 °F 30.05 in WSW 10.0 mph 19.0 mph 96% 0.00 in
00:34 36.3 °F 35.3 °F 30.04 in WSW 10.0 mph 19.0 mph 96% 0.00 in
00:39 36.2 °F 35.2 °F 30.04 in WSW 9.0 mph 16.0 mph 96% 0.00 in
00:44 36.2 °F 35.2 °F 30.04 in SSW 6.0 mph 13.0 mph 96% 0.00 in
00:49 36.2 °F 35.2 °F 30.05 in WSW 6.0 mph 15.0 mph 96% 0.01 in
00:54 36.2 °F 35.2 °F 30.05 in SW 8.0 mph 15.0 mph 96% 0.01 in
00:59 36.1 °F 34.8 °F 30.05 in WSW 8.0 mph 15.0 mph 95% 0.01 in
01:04 36.0 °F 34.7 °F 30.05 in WSW 7.0 mph 16.0 mph 95% 0.01 in
01:09 36.0 °F 34.7 °F 30.05 in WSW 11.0 mph 12.0 mph 95% 0.01 in
01:14 35.9 °F 34.6 °F 30.05 in SW 11.0 mph 13.0 mph 95% 0.01 in
01:19 35.9 °F 34.6 °F 30.05 in WSW 4.0 mph 14.0 mph 95% 0.01 in
01:24 35.9 °F 34.6 °F 30.05 in WSW 6.0 mph 14.0 mph 95% 0.01 in
01:29 35.8 °F 34.5 °F 30.05 in WSW 7.0 mph 15.0 mph 95% 0.01 in
01:34 35.7 °F 34.4 °F 30.05 in WSW 7.0 mph 15.0 mph 95% 0.01 in
01:39 35.7 °F 34.4 °F 30.05 in WSW 6.0 mph 16.0 mph 95% 0.01 in
01:44 35.6 °F 34.3 °F 30.05 in South 12.0 mph 12.0 mph 95% 0.01 in
01:49 35.6 °F 34.3 °F 30.05 in WSW 6.0 mph 15.0 mph 95% 0.00 in
01:54 35.6 °F 34.3 °F 30.05 in SW 6.0 mph 15.0 mph 95% 0.00 in
01:59 35.6 °F 34.3 °F 30.05 in WSW 6.0 mph 13.0 mph 95% 0.00 in
02:04 35.6 °F 34.3 °F 30.05 in WSW 7.0 mph 13.0 mph 95% 0.00 in
02:09 35.5 °F 34.2 °F 30.06 in WSW 6.0 mph 14.0 mph 95% 0.00 in
02:14 35.6 °F 34.3 °F 30.06 in WNW 4.0 mph 15.0 mph 95% 0.00 in
02:19 35.5 °F 34.2 °F 30.06 in West 4.0 mph 11.0 mph 95% 0.00 in
02:24 35.5 °F 34.2 °F 30.06 in West 5.0 mph 13.0 mph 95% 0.00 in
02:29 35.5 °F 34.2 °F 30.06 in WSW 11.0 mph 15.0 mph 95% 0.00 in
02:34 35.5 °F 34.2 °F 30.06 in WSW 8.0 mph 16.0 mph 95% 0.00 in
02:39 35.5 °F 34.2 °F 30.06 in SW 11.0 mph 16.0 mph 95% 0.00 in
02:44 35.5 °F 33.9 °F 30.06 in WSW 8.0 mph 16.0 mph 94% 0.00 in
02:49 35.5 °F 33.9 °F 30.06 in WSW 7.0 mph 17.0 mph 94% 0.00 in
02:54 35.6 °F 34.0 °F 30.05 in WSW 9.0 mph 17.0 mph 94% 0.00 in
02:59 35.5 °F 33.9 °F 30.05 in SW 5.0 mph 14.0 mph 94% 0.00 in
03:04 35.5 °F 33.9 °F 30.05 in SW 8.0 mph 17.0 mph 94% 0.00 in
03:09 35.4 °F 33.8 °F 30.05 in WSW 9.0 mph 20.0 mph 94% 0.00 in
03:14 35.4 °F 33.8 °F 30.05 in WSW 9.0 mph 20.0 mph 94% 0.00 in
03:19 35.3 °F 33.7 °F 30.05 in SSW 4.0 mph 17.0 mph 94% 0.00 in
03:24 35.3 °F 33.7 °F 30.06 in SSW 9.0 mph 21.0 mph 94% 0.00 in
03:29 35.2 °F 33.4 °F 30.06 in West 6.0 mph 15.0 mph 93% 0.00 in
03:34 35.1 °F 33.3 °F 30.06 in WSW 9.0 mph 22.0 mph 93% 0.00 in
03:39 35.1 °F 33.3 °F 30.06 in WSW 9.0 mph 22.0 mph 93% 0.00 in
03:44 35.1 °F 33.3 °F 30.05 in WSW 9.0 mph 18.0 mph 93% 0.00 in
03:49 35.1 °F 33.3 °F 30.04 in WSW 9.0 mph 19.0 mph 93% 0.00 in
03:54 35.0 °F 33.2 °F 30.04 in WSW 10.0 mph 19.0 mph 93% 0.00 in
03:59 35.0 °F 33.2 °F 30.04 in West 10.0 mph 21.0 mph 93% 0.00 in
04:04 35.1 °F 33.3 °F 30.05 in SW 9.0 mph 18.0 mph 93% 0.00 in
04:09 35.1 °F 33.0 °F 30.05 in SW 11.0 mph 18.0 mph 92% 0.00 in
04:14 35.0 °F 32.9 °F 30.04 in West 5.0 mph 18.0 mph 92% 0.00 in
04:19 35.0 °F 32.9 °F 30.04 in WNW 14.0 mph 18.0 mph 92% 0.00 in
04:24 34.9 °F 32.8 °F 30.04 in West 6.0 mph 14.0 mph 92% 0.00 in
04:29 35.0 °F 32.9 °F 30.04 in West 5.0 mph 16.0 mph 92% 0.00 in
04:34 35.0 °F 32.9 °F 30.04 in West 7.0 mph 16.0 mph 92% 0.00 in
04:39 34.9 °F 32.8 °F 30.04 in WSW 8.0 mph 17.0 mph 92% 0.00 in
04:49 34.9 °F 32.8 °F 30.04 in West 6.0 mph 14.0 mph 92% 0.00 in
04:54 34.9 °F 32.8 °F 30.04 in West 8.0 mph 13.0 mph 92% 0.00 in
04:59 34.8 °F 32.7 °F 30.04 in WSW 7.0 mph 17.0 mph 92% 0.00 in
05:04 34.8 °F 32.7 °F 30.05 in West 8.0 mph 17.0 mph 92% 0.00 in
05:09 34.8 °F 32.7 °F 30.05 in West 7.0 mph 15.0 mph 92% 0.00 in
05:14 34.8 °F 32.7 °F 30.06 in West 5.0 mph 14.0 mph 92% 0.00 in
05:19 34.7 °F 32.6 °F 30.06 in SSW 7.0 mph 15.0 mph 92% 0.00 in
05:24 34.7 °F 32.6 °F 30.06 in WSW 10.0 mph 17.0 mph 92% 0.00 in
05:29 34.6 °F 32.5 °F 30.06 in WNW 5.0 mph 13.0 mph 92% 0.00 in
05:34 34.6 °F 32.5 °F 30.07 in WSW 7.0 mph 11.0 mph 92% 0.00 in
05:39 34.6 °F 32.5 °F 30.06 in West 7.0 mph 16.0 mph 92% 0.00 in
05:44 34.6 °F 32.5 °F 30.07 in WSW 8.0 mph 14.0 mph 92% 0.00 in
05:49 34.6 °F 32.5 °F 30.07 in West 4.0 mph 16.0 mph 92% 0.00 in
05:54 34.6 °F 32.5 °F 30.07 in WSW 3.0 mph 14.0 mph 92% 0.00 in
05:59 34.6 °F 32.8 °F 30.07 in West 5.0 mph 13.0 mph 93% 0.00 in
06:04 34.5 °F 32.7 °F 30.07 in West 7.0 mph 16.0 mph 93% 0.00 in
06:09 34.6 °F 32.8 °F 30.07 in West 8.0 mph 16.0 mph 93% 0.00 in
06:14 34.6 °F 32.5 °F 30.08 in West 8.0 mph 15.0 mph 92% 0.00 in
06:19 34.6 °F 32.8 °F 30.08 in SW 9.0 mph 13.0 mph 93% 0.00 in
06:24 34.5 °F 32.7 °F 30.08 in West 7.0 mph 15.0 mph 93% 0.00 in
06:29 34.4 °F 32.3 °F 30.08 in WSW 5.0 mph 13.0 mph 92% 0.00 in
06:34 34.4 °F 32.3 °F 30.08 in West 7.0 mph 15.0 mph 92% 0.00 in
06:39 34.5 °F 32.4 °F 30.08 in West 7.0 mph 15.0 mph 92% 0.00 in
06:44 34.5 °F 32.4 °F 30.08 in West 7.0 mph 15.0 mph 92% 0.00 in
06:49 34.4 °F 32.3 °F 30.08 in West 5.0 mph 10.0 mph 92% 0.00 in
06:54 34.4 °F 32.3 °F 30.08 in West 7.0 mph 11.0 mph 92% 0.00 in
06:59 34.4 °F 32.3 °F 30.08 in WNW 9.0 mph 21.0 mph 92% 0.00 in
07:04 34.3 °F 32.2 °F 30.08 in West 9.0 mph 21.0 mph 92% 0.00 in
07:09 34.4 °F 32.3 °F 30.08 in West 7.0 mph 16.0 mph 92% 0.00 in
07:14 34.3 °F 32.2 °F 30.08 in West 7.0 mph 18.0 mph 92% 0.00 in
07:19 34.3 °F 32.2 °F 30.08 in West 7.0 mph 18.0 mph 92% 0.00 in
07:24 34.3 °F 32.2 °F 30.08 in West 6.0 mph 12.0 mph 92% 0.00 in
07:29 34.3 °F 32.2 °F 30.09 in West 6.0 mph 12.0 mph 92% 0.00 in
07:34 34.3 °F 32.2 °F 30.09 in WSW 2.0 mph 15.0 mph 92% 0.00 in
07:39 34.2 °F 32.1 °F 30.09 in WSW 7.0 mph 12.0 mph 92% 0.00 in
07:44 34.3 °F 32.2 °F 30.09 in SW 5.0 mph 12.0 mph 92% 0.00 in
07:49 34.2 °F 32.1 °F 30.09 in WSW 2.0 mph 12.0 mph 92% 0.00 in
07:54 34.2 °F 32.1 °F 30.10 in SW 4.0 mph 14.0 mph 92% 0.00 in
07:59 34.2 °F 32.1 °F 30.10 in West 3.0 mph 14.0 mph 92% 0.00 in
08:04 34.1 °F 32.3 °F 30.10 in West 10.0 mph 11.0 mph 93% 0.00 in
08:09 34.1 °F 32.3 °F 30.10 in West 6.0 mph 11.0 mph 93% 0.00 in
08:14 34.1 °F 32.0 °F 30.10 in West 6.0 mph 13.0 mph 92% 0.00 in
08:19 34.1 °F 32.0 °F 30.10 in West 6.0 mph 13.0 mph 92% 0.00 in
08:24 34.0 °F 31.9 °F 30.10 in West 7.0 mph 15.0 mph 92% 0.00 in
08:29 34.0 °F 31.9 °F 30.10 in West 7.0 mph 15.0 mph 92% 0.00 in
08:34 34.0 °F 31.9 °F 30.10 in West 7.0 mph 14.0 mph 92% 0.00 in
08:39 34.0 °F 31.9 °F 30.10 in West 7.0 mph 17.0 mph 92% 0.00 in
08:44 33.9 °F 31.8 °F 30.10 in West 2.0 mph 10.0 mph 92% 0.00 in
08:49 33.9 °F 31.8 °F 30.10 in WSW 5.0 mph 16.0 mph 92% 0.00 in
08:54 34.0 °F 31.9 °F 30.10 in WSW 3.0 mph 12.0 mph 92% 0.00 in
08:59 34.0 °F 31.9 °F 30.10 in WSW 7.0 mph 13.0 mph 92% 0.00 in
09:04 34.0 °F 31.9 °F 30.11 in WNW 5.0 mph 9.0 mph 92% 0.00 in
09:09 34.1 °F 32.0 °F 30.11 in WNW 2.0 mph 11.0 mph 92% 0.00 in
09:14 34.1 °F 31.7 °F 30.11 in West 6.0 mph 11.0 mph 91% 0.00 in
09:19 34.2 °F 31.8 °F 30.11 in West 6.0 mph 12.0 mph 91% 0.00 in
09:24 34.3 °F 31.9 °F 30.11 in West 6.0 mph 12.0 mph 91% 0.00 in
09:29 34.3 °F 31.9 °F 30.11 in West 6.0 mph 12.0 mph 91% 0.00 in
09:34 34.3 °F 31.9 °F 30.11 in West 6.0 mph 12.0 mph 91% 0.00 in
09:39 34.3 °F 31.9 °F 30.11 in West 6.0 mph 13.0 mph 91% 0.00 in
09:44 34.3 °F 31.9 °F 30.12 in West 7.0 mph 14.0 mph 91% 0.00 in
09:49 34.3 °F 31.9 °F 30.12 in WSW 6.0 mph 13.0 mph 91% 0.00 in
09:54 34.3 °F 31.9 °F 30.12 in West 4.0 mph 9.0 mph 91% 0.00 in
09:59 34.3 °F 31.9 °F 30.12 in West 5.0 mph 12.0 mph 91% 0.00 in
10:04 34.3 °F 32.2 °F 30.12 in West 5.0 mph 14.0 mph 92% 0.00 in
10:09 34.3 °F 32.2 °F 30.12 in WNW 8.0 mph 10.0 mph 92% 0.00 in
10:14 34.3 °F 32.2 °F 30.12 in West 4.0 mph 11.0 mph 92% 0.00 in
10:19 34.3 °F 32.2 °F 30.12 in West 5.0 mph 11.0 mph 92% 0.00 in
10:24 34.3 °F 32.2 °F 30.12 in West 6.0 mph 12.0 mph 92% 0.00 in
10:29 34.4 °F 32.3 °F 30.12 in West 5.0 mph 15.0 mph 92% 0.00 in
10:34 34.6 °F 32.5 °F 30.12 in West 5.0 mph 15.0 mph 92% 0.00 in
10:39 34.6 °F 32.2 °F 30.12 in WNW 6.0 mph 13.0 mph 91% 0.00 in
10:44 34.5 °F 32.1 °F 30.12 in WNW 8.0 mph 13.0 mph 91% 0.00 in
10:49 34.4 °F 32.0 °F 30.12 in West 6.0 mph 13.0 mph 91% 0.00 in
10:54 34.4 °F 32.0 °F 30.12 in West 6.0 mph 13.0 mph 91% 0.00 in
10:59 34.4 °F 32.0 °F 30.12 in West 8.0 mph 13.0 mph 91% 0.00 in
11:04 34.4 °F 32.0 °F 30.11 in WSW 6.0 mph 13.0 mph 91% 0.00 in
11:09 34.5 °F 32.4 °F 30.11 in WSW 4.0 mph 10.0 mph 92% 0.00 in
11:14 34.6 °F 32.2 °F 30.11 in West 5.0 mph 10.0 mph 91% 0.00 in
11:19 34.6 °F 32.2 °F 30.11 in West 5.0 mph 10.0 mph 91% 0.00 in
11:24 34.6 °F 32.2 °F 30.11 in WNW 6.0 mph 10.0 mph 91% 0.00 in
11:29 34.7 °F 32.3 °F 30.11 in West 6.0 mph 9.0 mph 91% 0.00 in
11:34 34.7 °F 32.1 °F 30.11 in West 7.0 mph 9.0 mph 90% 0.00 in
11:39 34.8 °F 32.4 °F 30.10 in West 9.0 mph 9.0 mph 91% 0.00 in
11:44 34.9 °F 32.5 °F 30.10 in West 5.0 mph 9.0 mph 91% 0.00 in
11:49 35.0 °F 32.6 °F 30.10 in West 4.0 mph 9.0 mph 91% 0.00 in
11:54 35.1 °F 32.7 °F 30.09 in West 4.0 mph 9.0 mph 91% 0.00 in
11:59 35.0 °F 32.6 °F 30.09 in West 4.0 mph 10.0 mph 91% 0.00 in
12:04 34.8 °F 32.4 °F 30.08 in WSW 5.0 mph 12.0 mph 91% 0.00 in
12:09 34.9 °F 32.5 °F 30.08 in WSW 3.0 mph 9.0 mph 91% 0.00 in
12:14 34.8 °F 32.4 °F 30.08 in WSW 5.0 mph 11.0 mph 91% 0.00 in
12:19 34.8 °F 32.4 °F 30.08 in WSW 6.0 mph 13.0 mph 91% 0.00 in
12:24 34.6 °F 32.2 °F 30.08 in WSW 6.0 mph 13.0 mph 91% 0.00 in
12:29 34.6 °F 32.5 °F 30.07 in West 1.0 mph 12.0 mph 92% 0.00 in
12:34 34.8 °F 32.7 °F 30.07 in WSW 4.0 mph 7.0 mph 92% 0.00 in
12:39 34.8 °F 32.7 °F 30.07 in WSW 6.0 mph 11.0 mph 92% 0.00 in
12:44 34.6 °F 32.5 °F 30.06 in West 6.0 mph 14.0 mph 92% 0.00 in
12:49 34.6 °F 32.5 °F 30.06 in WSW 5.0 mph 14.0 mph 92% 0.00 in
12:54 34.7 °F 32.6 °F 30.06 in West 4.0 mph 9.0 mph 92% 0.00 in
12:59 34.6 °F 32.5 °F 30.06 in West 5.0 mph 12.0 mph 92% 0.00 in
13:04 34.6 °F 32.5 °F 30.06 in West 5.0 mph 12.0 mph 92% 0.00 in
13:09 34.6 °F 32.5 °F 30.06 in SW 6.0 mph 9.0 mph 92% 0.00 in
13:14 34.6 °F 32.5 °F 30.06 in West 4.0 mph 9.0 mph 92% 0.00 in
13:19 34.6 °F 32.5 °F 30.05 in SSW 4.0 mph 10.0 mph 92% 0.00 in
13:24 34.7 °F 32.6 °F 30.05 in West 6.0 mph 8.0 mph 92% 0.00 in
13:29 34.6 °F 32.5 °F 30.05 in West 3.0 mph 9.0 mph 92% 0.00 in
13:34 34.7 °F 32.6 °F 30.05 in WSW 4.0 mph 10.0 mph 92% 0.00 in
13:39 34.8 °F 32.7 °F 30.04 in West 4.0 mph 8.0 mph 92% 0.00 in
13:44 34.8 °F 33.0 °F 30.04 in West 4.0 mph 8.0 mph 93% 0.00 in
13:49 34.7 °F 32.6 °F 30.03 in West 4.0 mph 8.0 mph 92% 0.00 in
13:54 34.6 °F 32.5 °F 30.04 in West 4.0 mph 8.0 mph 92% 0.00 in
13:59 34.6 °F 32.8 °F 30.03 in West 4.0 mph 8.0 mph 93% 0.00 in
14:04 34.6 °F 32.8 °F 30.04 in West 4.0 mph 8.0 mph 93% 0.00 in
14:09 34.6 °F 32.8 °F 30.04 in West 4.0 mph 7.0 mph 93% 0.00 in
14:14 34.6 °F 32.8 °F 30.04 in West 2.0 mph 8.0 mph 93% 0.00 in
14:19 34.6 °F 32.8 °F 30.04 in West 2.0 mph 7.0 mph 93% 0.00 in
14:24 34.6 °F 32.8 °F 30.03 in West 5.0 mph 6.0 mph 93% 0.00 in
14:29 34.6 °F 32.8 °F 30.03 in West 4.0 mph 6.0 mph 93% 0.00 in
14:34 34.6 °F 32.8 °F 30.03 in West 5.0 mph 7.0 mph 93% 0.00 in
14:39 34.6 °F 32.8 °F 30.03 in WSW 2.0 mph 5.0 mph 93% 0.00 in
14:44 34.7 °F 32.9 °F 30.02 in WSW 3.0 mph 6.0 mph 93% 0.00 in
14:49 34.7 °F 32.9 °F 30.02 in WSW 4.0 mph 7.0 mph 93% 0.00 in
14:54 34.7 °F 32.9 °F 30.02 in WSW 1.0 mph 7.0 mph 93% 0.00 in
14:59 34.8 °F 33.0 °F 30.02 in WSW 1.0 mph 5.0 mph 93% 0.00 in
15:04 34.6 °F 32.8 °F 30.02 in WSW 3.0 mph 6.0 mph 93% 0.00 in
15:09 34.6 °F 32.8 °F 30.02 in West 3.0 mph 9.0 mph 93% 0.00 in
15:14 34.4 °F 32.6 °F 30.02 in WSW 5.0 mph 7.0 mph 93% 0.00 in
15:19 34.4 °F 32.6 °F 30.02 in WSW 4.0 mph 7.0 mph 93% 0.00 in
15:24 34.4 °F 32.6 °F 30.02 in WSW 4.0 mph 7.0 mph 93% 0.00 in
15:29 34.4 °F 32.6 °F 30.03 in West 3.0 mph 7.0 mph 93% 0.00 in
15:34 34.4 °F 32.6 °F 30.03 in West 3.0 mph 7.0 mph 93% 0.00 in
15:39 34.5 °F 32.7 °F 30.04 in West 4.0 mph 6.0 mph 93% 0.00 in
15:44 34.4 °F 32.6 °F 30.04 in WSW 3.0 mph 6.0 mph 93% 0.00 in
15:49 34.6 °F 33.1 °F 30.03 in WSW 3.0 mph 6.0 mph 94% 0.00 in
15:54 34.5 °F 32.7 °F 30.03 in WSW 3.0 mph 6.0 mph 93% 0.00 in
15:59 34.5 °F 32.7 °F 30.03 in WSW 3.0 mph 5.0 mph 93% 0.00 in
16:04 34.5 °F 33.0 °F 30.03 in WSW 3.0 mph 5.0 mph 94% 0.00 in
16:09 34.5 °F 33.0 °F 30.03 in WSW 1.0 mph 4.0 mph 94% 0.00 in
16:14 34.5 °F 32.7 °F 30.02 in WSW 3.0 mph 4.0 mph 93% 0.00 in
16:19 34.4 °F 32.9 °F 30.03 in WSW 1.0 mph 4.0 mph 94% 0.00 in
16:24 34.4 °F 32.9 °F 30.03 in WSW 2.0 mph 4.0 mph 94% 0.00 in
16:29 34.5 °F 33.0 °F 30.03 in WSW 2.0 mph 4.0 mph 94% 0.00 in
16:34 34.4 °F 32.9 °F 30.04 in SW 3.0 mph 5.0 mph 94% 0.00 in
16:39 34.4 °F 32.9 °F 30.04 in SW 2.0 mph 4.0 mph 94% 0.00 in
16:44 34.4 °F 32.9 °F 30.04 in SW 1.0 mph 3.0 mph 94% 0.00 in
16:49 34.4 °F 32.6 °F 30.03 in SW 1.0 mph 3.0 mph 93% 0.00 in
16:54 34.4 °F 32.6 °F 30.04 in SSW 2.0 mph 4.0 mph 93% 0.00 in
16:59 34.3 °F 32.5 °F 30.05 in SSW 2.0 mph 4.0 mph 93% 0.00 in
17:04 34.3 °F 32.5 °F 30.06 in SW 1.0 mph 4.0 mph 93% 0.00 in
17:09 34.3 °F 32.5 °F 30.06 in SSW 2.0 mph 4.0 mph 93% 0.00 in
17:14 34.2 °F 32.7 °F 30.06 in SW 1.0 mph 5.0 mph 94% 0.00 in
17:19 34.2 °F 32.7 °F 30.06 in SSW 1.0 mph 3.0 mph 94% 0.00 in
17:24 34.1 °F 32.6 °F 30.06 in SSW 2.0 mph 4.0 mph 94% 0.00 in
17:29 34.1 °F 32.6 °F 30.06 in SSW 2.0 mph 5.0 mph 94% 0.00 in
17:34 34.1 °F 32.6 °F 30.06 in SW 2.0 mph 5.0 mph 94% 0.00 in
17:39 34.0 °F 32.5 °F 30.06 in SW 2.0 mph 4.0 mph 94% 0.00 in
17:44 34.0 °F 32.5 °F 30.07 in SW 2.0 mph 4.0 mph 94% 0.00 in
17:49 33.9 °F 32.4 °F 30.07 in SW 2.0 mph 5.0 mph 94% 0.01 in
17:54 33.9 °F 32.4 °F 30.06 in SSW 1.0 mph 4.0 mph 94% 0.01 in
17:59 33.8 °F 32.3 °F 30.07 in SW 3.0 mph 3.0 mph 94% 0.01 in
18:04 33.8 °F 32.3 °F 30.06 in SSW 2.0 mph 3.0 mph 94% 0.01 in
18:09 33.8 °F 32.3 °F 30.07 in Calm   5.0 mph 94% 0.01 in
18:14 33.8 °F 32.3 °F 30.07 in SW 4.0 mph 4.0 mph 94% 0.01 in
18:19 33.7 °F 32.2 °F 30.07 in SSW 2.0 mph 4.0 mph 94% 0.01 in
18:24 33.7 °F 32.2 °F 30.07 in SW 2.0 mph 4.0 mph 94% 0.01 in
18:29 33.7 °F 32.2 °F 30.07 in SW 2.0 mph 4.0 mph 94% 0.01 in
18:34 33.7 °F 32.2 °F 30.06 in SW 2.0 mph 4.0 mph 94% 0.01 in
18:39 33.7 °F 32.2 °F 30.06 in SW 2.0 mph 5.0 mph 94% 0.01 in
18:44 33.6 °F 32.1 °F 30.06 in SW 2.0 mph 5.0 mph 94% 0.01 in
18:49 33.6 °F 32.1 °F 30.06 in SW 2.0 mph 5.0 mph 94% 0.00 in
18:54 33.5 °F 32.0 °F 30.06 in Calm     94% 0.00 in
18:59 33.5 °F 32.0 °F 30.06 in SW 1.0 mph 4.0 mph 94% 0.00 in
19:04 33.5 °F 32.0 °F 30.06 in SW 1.0 mph 4.0 mph 94% 0.00 in
19:09 33.5 °F 32.0 °F 30.05 in Calm   3.0 mph 94% 0.00 in
19:14 33.5 °F 32.0 °F 30.05 in SSW 2.0 mph 2.0 mph 94% 0.00 in
19:19 33.5 °F 32.0 °F 30.04 in SW 3.0 mph 3.0 mph 94% 0.00 in
19:24 33.4 °F 31.9 °F 30.04 in SSW 2.0 mph 3.0 mph 94% 0.00 in
19:29 33.4 °F 31.9 °F 30.04 in SSW 2.0 mph 3.0 mph 94% 0.00 in
19:34 33.4 °F 31.9 °F 30.03 in SSW 1.0 mph 3.0 mph 94% 0.00 in
19:39 33.5 °F 32.0 °F 30.04 in South 1.0 mph 3.0 mph 94% 0.00 in
19:44 33.4 °F 31.9 °F 30.03 in South 1.0 mph 3.0 mph 94% 0.00 in
19:49 33.5 °F 32.0 °F 30.04 in Calm     94% 0.00 in
19:54 33.4 °F 31.9 °F 30.04 in Calm     94% 0.00 in
19:59 33.5 °F 32.0 °F 30.04 in Calm     94% 0.00 in
20:04 33.5 °F 32.0 °F 30.03 in SSW 1.0 mph 4.0 mph 94% 0.00 in
20:09 33.5 °F 32.0 °F 30.04 in SSW 1.0 mph 4.0 mph 94% 0.00 in
20:14 33.5 °F 32.0 °F 30.04 in South 2.0 mph 3.0 mph 94% 0.00 in
20:19 33.6 °F 32.1 °F 30.04 in South 2.0 mph 3.0 mph 94% 0.00 in
20:24 33.6 °F 32.1 °F 30.03 in South 1.0 mph 4.0 mph 94% 0.00 in
20:29 33.6 °F 32.1 °F 30.04 in South 2.0 mph 3.0 mph 94% 0.00 in
20:34 33.6 °F 32.1 °F 30.04 in South 2.0 mph 4.0 mph 94% 0.00 in
20:39 33.6 °F 32.1 °F 30.03 in South 2.0 mph 4.0 mph 94% 0.00 in
20:44 33.6 °F 32.1 °F 30.03 in South 2.0 mph 3.0 mph 94% 0.00 in
20:49 33.6 °F 32.1 °F 30.02 in South 2.0 mph 2.0 mph 94% 0.00 in
20:54 33.7 °F 32.2 °F 30.02 in South 2.0 mph 4.0 mph 94% 0.00 in
20:59 33.7 °F 32.2 °F 30.02 in South 2.0 mph 4.0 mph 94% 0.00 in
21:04 33.7 °F 32.4 °F 30.02 in South 2.0 mph 4.0 mph 95% 0.00 in
21:09 33.7 °F 32.4 °F 30.02 in South 2.0 mph 4.0 mph 95% 0.00 in
21:14 33.7 °F 32.4 °F 30.02 in South 1.0 mph 3.0 mph 95% 0.00 in
21:19 33.8 °F 32.5 °F 30.02 in South 1.0 mph 3.0 mph 95% 0.00 in
21:24 33.8 °F 32.5 °F 30.02 in South 1.0 mph 3.0 mph 95% 0.00 in
21:29 33.8 °F 32.5 °F 30.02 in Calm   2.0 mph 95% 0.00 in
21:34 33.8 °F 32.5 °F 30.02 in Calm   2.0 mph 95% 0.00 in
21:39 33.8 °F 32.5 °F 30.02 in Calm     95% 0.00 in
21:44 33.8 °F 32.5 °F 30.02 in Calm     95% 0.00 in
21:49 33.8 °F 32.5 °F 30.02 in Calm     95% 0.00 in
21:54 33.8 °F 32.5 °F 30.02 in Calm     95% 0.00 in
21:59 33.8 °F 32.5 °F 30.02 in Calm     95% 0.00 in
22:04 33.8 °F 32.5 °F 30.02 in Calm     95% 0.00 in
22:09 33.8 °F 32.5 °F 30.02 in Calm     95% 0.00 in
22:14 33.8 °F 32.5 °F 30.01 in Calm     95% 0.00 in
22:19 33.9 °F 32.6 °F 30.01 in Calm     95% 0.00 in
22:24 33.9 °F 32.6 °F 30.01 in Calm     95% 0.00 in
22:29 33.8 °F 32.5 °F 30.01 in Calm     95% 0.00 in
22:34 33.9 °F 32.6 °F 30.01 in Calm     95% 0.00 in
22:39 33.9 °F 32.6 °F 30.00 in Calm     95% 0.00 in
22:44 33.9 °F 32.6 °F 30.01 in Calm     95% 0.00 in
22:49 33.9 °F 32.6 °F 30.01 in Calm     95% 0.00 in
22:54 33.9 °F 32.6 °F 30.00 in Calm     95% 0.00 in
22:59 33.9 °F 32.6 °F 30.00 in Calm     95% 0.00 in
23:04 33.9 °F 32.6 °F 30.00 in Calm     95% 0.00 in
23:09 34.0 °F 32.7 °F 30.00 in Calm     95% 0.00 in
23:14 34.0 °F 32.7 °F 30.00 in Calm     95% 0.00 in
23:19 34.0 °F 32.7 °F 30.00 in Calm     95% 0.00 in
23:24 34.0 °F 32.7 °F 30.00 in Calm   2.0 mph 95% 0.00 in
23:29 34.0 °F 32.7 °F 30.00 in Calm   2.0 mph 95% 0.00 in
23:34 34.0 °F 32.7 °F 30.00 in Calm     95% 0.00 in
23:39 34.0 °F 32.7 °F 30.00 in Calm     95% 0.00 in
23:44 34.0 °F 32.7 °F 29.99 in Calm     95% 0.00 in
23:49 34.0 °F 32.7 °F 29.99 in Calm     95% 0.00 in
23:54 34.1 °F 32.8 °F 29.99 in Calm     95% 0.00 in
23:59 34.0 °F 32.7 °F 29.99 in Calm     95% 0.00 in
Buffalo, New York, USA
Compliments of Weather Underground - 2.5 mb